Weather History for K0J4 - January, 2012

Change the Weather History Date:

Sunday, January 8, 2012

  Actual Average (KCEW) Record (KCEW)
Temperature  
Mean Temperature 65 °F -  
Max Temperature 75 °F 60 °F 75 °F (2005)
Min Temperature 55 °F 39 °F 16 °F (2014)
Growing Degree Days 15 (Base 50)    
Moisture  
Dew Point 59 °F    
Average Humidity 81    
Maximum Humidity 93    
Minimum Humidity 52    
Precipitation  
Precipitation 0.01 in - - ()
Sea Level Pressure  
Sea Level Pressure 30.18 in    
Wind  
Wind Speed 3 mph (South)    
Max Wind Speed 10 mph    
Max Gust Speed 20 mph    
Averages and records for this station are not official NWS values.
T = Trace of Precipitation, MM = Missing Value Source: NWS Daily Summary

Daily Weather History Graph

Daily Weather History Graph

Search for Another Location

Airport or City:

Trip Planner

Search our weather history database for the weather conditions in past years. The results will help you decide how hot, cold, wet, or windy it might be!

Date:

Astronomy

Jan. 08, 2012 Rise Set
Actual Time 6:44 AM CST 4:59 PM CST
Civil Twilight 6:18 AM CST 5:25 PM CST
Nautical Twilight 5:48 AM CST 5:55 PM CST
Astronomical Twilight 5:18 AM CST 6:25 PM CST
Moon 4:41 PM CST (1/8) 6:02 AM CST (1/8)
Length of Visible Light 11h 07m
Length of Day
10h 14m
Full, 100% of the Moon is Illuminated
Jan 8
Full
Jan 9
Full
Jan 16
Last Quarter
Jan 23
New
Jan 30
First Quarter

Hourly Weather History & Observations

Time (CST) Temp. Dew Point Humidity Pressure Visibility Wind Dir Wind Speed Gust Speed Precip Events Conditions
12:58 AM 55.9 °F 53.1 °F 90% 30.15 in - Calm Calm - N/A   Overcast
1:58 AM 57.9 °F 55.0 °F 90% 30.15 in - Calm Calm - N/A   Overcast
2:58 AM 55.0 °F 52.0 °F 89% 30.15 in - Calm Calm - N/A   Overcast
3:58 AM 57.9 °F 55.0 °F 90% 30.15 in - Calm Calm - N/A   Overcast
4:58 AM 57.9 °F 55.0 °F 90% 30.16 in - Calm Calm - N/A   Overcast
5:58 AM 57.0 °F 55.0 °F 93% 30.17 in - Calm Calm - N/A   Overcast
6:58 AM 57.9 °F 55.0 °F 90% 30.19 in - Calm Calm - N/A   Overcast
7:18 AM 57.9 °F 55.9 °F 93% 30.20 in - Calm Calm - N/A   Overcast
7:38 AM 59.0 °F 55.9 °F 90% 30.20 in - Calm Calm - N/A   Overcast
7:58 AM 60.1 °F 57.0 °F 90% 30.20 in - Calm Calm - N/A   Overcast
8:19 AM 62.1 °F 59.0 °F 90% 30.21 in - Calm Calm - N/A   Mostly Cloudy
8:58 AM 66.0 °F 62.1 °F 87% 30.22 in - SSE 3.5 mph - N/A   Scattered Clouds
9:58 AM 71.1 °F 62.1 °F 73% 30.23 in - SSW 6.9 mph - N/A   Mostly Cloudy
10:53 AM 75.0 °F 62.1 °F 64% 30.21 in - SSW 9.2 mph - N/A   Mostly Cloudy
10:58 AM 73.9 °F 61.0 °F 64% 30.20 in - SW 9.2 mph - N/A   Mostly Cloudy
11:12 AM 73.9 °F 60.1 °F 62% 30.21 in - SSW 9.2 mph - N/A   Mostly Cloudy
11:58 AM 75.0 °F 60.1 °F 60% 30.18 in - SW 4.6 mph - N/A   Scattered Clouds
12:58 PM 75.9 °F 57.0 °F 52% 30.15 in - SSW 9.2 mph - N/A   Mostly Cloudy
1:58 PM 75.9 °F 61.0 °F 60% 30.15 in - South 10.4 mph 19.6 mph 0.00 in   Mostly Cloudy
2:58 PM 73.0 °F 60.1 °F 64% 30.15 in - South 9.2 mph - N/A   Scattered Clouds
3:58 PM 70.0 °F 61.0 °F 73% 30.16 in - South 4.6 mph - 0.00 in Rain Light Rain
4:58 PM 68.0 °F 62.1 °F 81% 30.16 in - SSW 3.5 mph - 0.01 in   Overcast
5:58 PM 68.0 °F 61.0 °F 78% 30.17 in - SSW 4.6 mph - N/A   Overcast
6:58 PM 66.9 °F 61.0 °F 81% 30.18 in - South 6.9 mph - N/A   Scattered Clouds
7:58 PM 64.0 °F 60.1 °F 87% 30.18 in - South 3.5 mph - N/A   Clear
8:58 PM 62.1 °F 57.9 °F 86% 30.19 in - SSE 3.5 mph - N/A   Partly Cloudy
9:36 PM 63.0 °F 59.0 °F 87% 30.20 in - South 4.6 mph - N/A   Partly Cloudy
9:45 PM 63.0 °F 60.1 °F 90% 30.20 in - South 4.6 mph - N/A   Mostly Cloudy
9:58 PM 64.0 °F 61.0 °F 90% 30.19 in - South 5.8 mph - N/A   Overcast
10:58 PM 64.9 °F 62.1 °F 90% 30.19 in - South 5.8 mph - N/A   Overcast
11:58 PM 64.9 °F 62.1 °F 90% 30.17 in - South 8.1 mph - N/A   Overcast